NOAA 16 DEB, 41245

Orbit data source: Space-Track

NOAA 16 DEB, 41245 is space debris in SSO originally from a launch on Thu, 21 Sep 2000 UTC launched from the Air Force Western Test Range (AFWTR). Debris objects in space refer to the collection of defunct objects orbiting the Earth. Examples of debris include non-operational satellites, rocket bodies, and fragments generated from explosions, collisions, or faulty payload assembly.

Loading next visibility...
Identifier
41245, 2000-055EV
Orbit
SSO
Country
Flag of USUS
Related business
Manufacturer
Unknown
Mission
Spacecraft
Bus & Motor
Unknown
Mass
Unknown
Launch date (UTC)
2000-09-21 (26 years ago)
Launch vehicle
Unknown
Launch site
Air Force Western Test Range (AFWTR)
Object type
Payload
Rocket body
Debris
Shape & HBR
Unknown shape, 0.1 m
Radar Cross Section
Small (<0.1 m²)

Expand to show TLE details & history
Last TLE update: 4 days ago

TLE from 4 days ago
0 NOAA 16 DEB
1 41245U 00055EV  26123.52661614  .00001891  00000-0  90790-3 0  9998
2 41245  98.5195 147.0818 0014269 212.3740 147.6563 14.19986331532271
Epoch: 2026-05-03T12:38Z
TLE epoch observation values (Epoch: 2026-05-03T12:38:19.634Z)
Latitude
-0°
Longitude
96.0711°
Altitude
837.009 km
Speed
7.43 km/s
True Right ascension
09h 48m 19s
True Declination
0° 00' 00"
Sunlit
Object was in daylight at epoch
Visualization orbit readout
Latitude
Unknown
Longitude
Unknown
Altitude
Unknown
Speed
Unknown
Apparent Right ascension
Unknown
Apparent Declination
Unknown
Sunlit
N/A
Visualization observer readout
Local Sidereal Time
01:32:11
Azimuth
Unknown
Elevation
Unknown
Doppler factor
Unknown
Orbital elements
Apogee altitude
832.823 km
Perigee altitude
812.274 km
Semi-major axis
7,200.686 km
Eccentricity
0.00143
Inclination
98.5195°
RAAN
147.0818°
Arg. of periapsis
212.374°
True anomaly
147.74365°
Mean anomaly
147.6563°
Eccentric anomaly
147.69999°
Mean motion
3.55208 °/min
Orbital period
101.35 mins
BSTAR
0.0009079
Loading maneuver chart data...
Computing Atmospheric mass density...

Documentation

Showing up to 5 results
|